This is the latest recevied weather packets stored in our database for station/object iz1wiy-2. If no packets are shown the sender has not sent any weather packets the latest 10 day(s).
| Time | Temp. | Humidity | Pressure | Rain* | Wind** | Luminosity | Snow |
|---|---|---|---|---|---|---|---|
| 1777650606 | 23.89° C | 26% | 1022.5 hPa | 0 mm | - | - | - |
| 1777650304 | 24.44° C | 26% | 1022.6 hPa | 0 mm | - | - | - |
| 1777650003 | 23.89° C | 26% | 1022.6 hPa | 0 mm | - | - | - |
| 1777649703 | 24.44° C | 25% | 1022.6 hPa | 0 mm | - | - | - |
| 1777649404 | 24.44° C | 26% | 1022.6 hPa | 0 mm | - | - | - |
| 1777649103 | 23.89° C | 26% | 1022.6 hPa | 0 mm | - | - | - |
| 1777648803 | 23.89° C | 26% | 1022.6 hPa | 0 mm | - | - | - |
| 1777648503 | 24.44° C | 26% | 1022.6 hPa | 0 mm | - | - | - |
| 1777648204 | 24.44° C | 27% | 1022.8 hPa | 0 mm | - | - | - |
| 1777647903 | 23.89° C | 26% | 1022.8 hPa | 0 mm | - | - | - |
| 1777647603 | 23.89° C | 26% | 1022.7 hPa | 0 mm | - | - | - |
| 1777647304 | 23.89° C | 26% | 1022.8 hPa | 0 mm | - | - | - |
| 1777647004 | 23.89° C | 25% | 1022.8 hPa | 0 mm | - | - | - |
| 1777646703 | 23.89° C | 26% | 1022.8 hPa | 0 mm | - | - | - |
| 1777646404 | 23.33° C | 27% | 1022.9 hPa | 0 mm | - | - | - |
| 1777646104 | 22.78° C | 30% | 1022.9 hPa | 0 mm | - | - | - |
| 1777645803 | 22.22° C | 40% | 1022.9 hPa | 0 mm | - | - | - |
| 1777645503 | 21.67° C | 42% | 1022.9 hPa | 0 mm | - | - | - |
| 1777645204 | 20.56° C | 52% | 1023.1 hPa | 0 mm | - | - | - |
| 1777644903 | 20.56° C | 50% | 1023.1 hPa | 0 mm | - | - | - |
| 1777644603 | 21.11° C | 47% | 1023.2 hPa | 0 mm | - | - | - |
| 1777644303 | 21.67° C | 43% | 1023.1 hPa | 0 mm | - | - | - |
| 1777644004 | 21.67° C | 41% | 1023.1 hPa | 0 mm | - | - | - |
| 1777643703 | 21.11° C | 41% | 1023.2 hPa | 0 mm | - | - | - |
| 1777643403 | 21.11° C | 43% | 1023.3 hPa | 0 mm | - | - | - |
* Rain latest hour (hover to see other rain measurements)
** Current wind speed in m/s (hover to see current wind gust speed)